This is the latest recevied weather packets stored in our database for station/object K0QJ. If no packets are shown the sender has not sent any weather packets the latest 10 day(s).
| Time | Temp. | Humidity | Pressure | Rain* | Wind** | Luminosity | Snow |
|---|---|---|---|---|---|---|---|
| 1778013447 | 8.33° C | 95% | 1011.2 hPa | 0 mm | - | 70 W/m² | - |
| 1778013144 | 8.33° C | 95% | 1011 hPa | 0 mm | - | 97 W/m² | - |
| 1778012840 | 8.89° C | 96% | 1011.1 hPa | 0 mm | - | 96 W/m² | - |
| 1778012536 | 8.89° C | 96% | 1011.2 hPa | 0 mm | - | 145 W/m² | - |
| 1778012233 | 8.33° C | 96% | 1011.3 hPa | 0 mm | - | 129 W/m² | - |
| 1778011930 | 8.33° C | 96% | 1010.9 hPa | 0 mm | - | 121 W/m² | - |
| 1778011629 | 8.33° C | 96% | 1010.9 hPa | 0 mm | - | 122 W/m² | - |
| 1778011325 | 7.78° C | 96% | 1011 hPa | 0 mm | - | 143 W/m² | - |
| 1778011021 | 8.33° C | 96% | 1011 hPa | 0 mm | - | 94 W/m² | - |
| 1778010718 | 8.33° C | 96% | 1011.1 hPa | 0 mm | - | 65 W/m² | - |
| 1778010415 | 7.78° C | 96% | 1010.9 hPa | 0 mm | - | 80 W/m² | - |
| 1778010112 | 8.33° C | 96% | 1010.9 hPa | 0 mm | - | 89 W/m² | - |
| 1778009808 | 8.33° C | 96% | 1010.8 hPa | 0 mm | - | 135 W/m² | - |
| 1778009505 | 8.33° C | 96% | 1010.9 hPa | 0 mm | - | 109 W/m² | - |
| 1778009204 | 8.33° C | 96% | 1010.8 hPa | 0 mm | - | 117 W/m² | - |
| 1778008901 | 8.33° C | 96% | 1010.8 hPa | 0 mm | - | 144 W/m² | - |
| 1778008599 | 7.78° C | 96% | 1011.3 hPa | 0 mm | - | 158 W/m² | - |
| 1778008297 | 7.78° C | 96% | 1011 hPa | 0 mm | - | 74 W/m² | - |
| 1778007993 | 7.78° C | 96% | 1011 hPa | 0 mm | - | 117 W/m² | - |
| 1778007688 | 7.78° C | 96% | 1011 hPa | 0 mm | - | 119 W/m² | - |
| 1778007385 | 7.78° C | 96% | 1011.2 hPa | 0 mm | - | 130 W/m² | - |
| 1778007081 | 7.78° C | 96% | 1011.2 hPa | 0 mm | - | 174 W/m² | - |
| 1778006778 | 7.78° C | 96% | 1011.2 hPa | 0 mm | - | 166 W/m² | - |
| 1778006475 | 7.78° C | 96% | 1011 hPa | 0 mm | - | 167 W/m² | - |
| 1778006171 | 7.78° C | 96% | 1011.2 hPa | 1.27 mm | - | 132 W/m² | - |
* Rain latest hour (hover to see other rain measurements)
** Current wind speed in m/s (hover to see current wind gust speed)